{"data":{"norad_id":60020,"intl_designator":"2024-111E","name":"STARLINK-31883","alt_names":[],"object_type":"PAYLOAD","status":"ACTIVE","operator":null,"country":"US","launch_date":"2024-06-08","launch_site_code":"AFETR","launch_vehicle":null,"mission":null,"orbit_class":"UNKNOWN","rcs_meters":null,"size_class":null,"mass_kg":null,"dimensions":null,"purposes":["comms"],"wikipedia_slug":null,"has_3d_model":false,"image_url":null,"decayed_at":null,"tle_current":{"epoch":"2026-09-21T22:44:50.542080Z","epoch_age_seconds":52555,"freshness":"FRESH","line1":"1 60020U 24111E   26264.94780720 -.00000022  00000+0  10487-4 0  9992","line2":"2 60020  53.1584 243.1658 0001532  97.8777 262.2399 15.34388623129043","mean_motion":15.34388623,"eccentricity":0.0001532,"inclination_deg":53.1584,"raan_deg":243.1658,"arg_perigee_deg":97.8777,"mean_anomaly_deg":262.2399,"bstar":1.0487e-5,"rev_number":12904,"period_min":93.848453932391,"perigee_km":461.68903335237,"apogee_km":463.7850771629,"semimajor_km":6840.8740552576,"source":"CELESTRAK","updated_at":"2026-09-22T09:00:49.138007Z"}}}